Location: Home
(42.5358°N, 72.7383°W)
Time: 19:56:07
(UTC-05:00)

A-11 Canister half - Pass Details

Date: 05 December 2021
Orbit: 1524 x 1684 km, 47.3° (Epoch: 23 January)

Event Time Altitude Azimuth Distance (km) Brightness Sun altitude
Rises 01:38:18 0° 244° (WSW) 4,924 - -58.5°
Reaches altitude 10° 01:41:27 10° 244° (WSW) 3,942 - -58.0°
Maximum altitude 01:51:40 89° 331° (NNW) 1,682 - -56.3°
Exits shadow 01:57:59 28° 66° (ENE) 2,778 10.5 -55.3°
Drops below altitude 10° 02:01:47 10° 67° (ENE) 3,902 11.5 -54.6°
Sets 02:04:53 0° 68° (ENE) 4,873 12.2 -54.1°
